Flag for Denmark Weather past 2 weeks in Horsens, Denmark

Now
57 °F

Partly sunny.


Feels Like: 55 °F
Forecast: 56 / 64 °F
Wind: 9 mph from East

Location: Billund Lufthavn

Current Time: Sep 30, 2014 at 6:56:01 PM

Latest Report: Sep 30, 2014 at 6:20 PM


Visibility: N/A

Pressure: 30.21 "Hg

Humidity: 94%

Dew point: 55 °F

Location of HorsensLocation

Historic Weather in Horsens — Graph

°F

Horsens temperature yesterday

Maximum temperature yesterday: 66 °F (at 2:50 PM)
Minimum temperature yesterday: 52 °F (at 12:20 AM)
Average temperature yesterday: 57 °F

Past Weeks' High & Low Weather Summary

 TemperatureHumidityPressure
High70 °F (Sep 18, 3:20 PM)100% (Sep 16, 6:50 AM)30.27 "Hg (Sep 16, 6:50 AM)
Low36 °F (Sep 23, 3:50 AM)50% (Sep 19, 4:20 PM)29.65 "Hg (Sep 24, 3:50 PM)
Average56 °F85%30.03 "Hg
* Reported Sep 15 5:20 PM — Sep 30 5:50 PM, Horsens, Weather by CustomWeather, © 2014

Note: Actual official high and low records may vary slightly from our data, if they occured in-between our weather recording intervals... More about our weather records

Advertising

Horsens weather history for previous 24 hours

 ConditionsComfort  
Time TempWeatherWind HumidityBarometerVisibility
5:50 PM
Sep 30
57 °FPartly sunny.13 mph94%30.21 "HgN/A
5:20 PM57 °FPartly sunny.10 mph94%30.21 "HgN/A
4:50 PM57 °FLight rain. Partly sunny.12 mph94%30.21 "HgN/A
4:20 PM57 °FLight rain. Partly sunny.10 mph94%30.21 "HgN/A
3:50 PM57 °FLight rain. Partly sunny.8 mph94%30.21 "HgN/A
3:20 PM57 °FLight rain. Broken clouds.12 mph94%30.21 "HgN/A
2:50 PM57 °FLight rain. Broken clouds.10 mph94%30.21 "HgN/A
2:20 PM57 °FLight rain. Broken clouds.10 mph94%30.21 "HgN/A
1:50 PM59 °FLight rain. Partly sunny.12 mph94%30.21 "HgN/A
1:20 PM59 °FLight rain. Partly sunny.13 mph94%30.21 "Hg5 mi
12:50 PM57 °FLight rain. Partly sunny.13 mph94%30.21 "Hg5 mi
12:20 PM57 °FLight rain. Partly sunny.10 mph94%30.21 "Hg4 mi
11:50 AM57 °FLight rain. Partly sunny.10 mph94%30.21 "Hg4 mi
11:20 AM57 °FLight rain. Partly sunny.10 mph94%30.21 "Hg4 mi
10:50 AM57 °FLight rain. Partly sunny.10 mph94%30.21 "Hg3 mi
10:20 AM57 °FLight rain. Partly sunny.8 mph94%30.21 "Hg2 mi
9:50 AM55 °FLight rain. Broken clouds.9 mph94%30.18 "Hg2 mi
9:20 AM55 °FLight rain. Broken clouds.8 mph94%30.18 "Hg3 mi
8:50 AM55 °FLight rain. Broken clouds.9 mph100%30.18 "Hg2 mi
8:20 AM55 °FLight rain. Partly cloudy.7 mph94%30.18 "Hg2 mi
7:50 AM55 °FLight rain. Partly cloudy.7 mph100%30.18 "Hg2 mi
7:20 AM55 °FLight rain. Passing clouds.6 mph100%30.18 "Hg2 mi
6:50 AM55 °FLight rain. Passing clouds.7 mph100%30.18 "Hg2 mi
6:20 AM55 °FLight rain. Passing clouds.3 mph100%30.18 "Hg2 mi
5:50 AM57 °FFog.6 mph94%30.18 "Hg2 mi
5:20 AM57 °FLight rain. Passing clouds.7 mph94%30.18 "Hg3 mi
4:50 AM55 °FLight rain. Passing clouds.5 mph94%30.18 "Hg4 mi
4:20 AM55 °FLight rain. Partly cloudy.6 mph94%30.18 "Hg5 mi
3:50 AM55 °FLight rain. Partly cloudy.5 mph94%30.18 "HgN/A
3:20 AM55 °FClear.2 mph88%30.18 "Hg10 mi
2:50 AM55 °FClear.2 mph94%30.18 "Hg10 mi
2:20 AM54 °FPassing clouds.3 mph100%30.18 "HgN/A
1:50 AM55 °FPassing clouds.3 mph94%30.18 "HgN/A
1:20 AM54 °FClear.2 mph94%30.18 "Hg10 mi
12:50 AM54 °FClear.1 mph94%30.21 "Hg10 mi
12:20 AM55 °FClear.2 mph88%30.21 "Hg10 mi
11:50 PM
Sep 29
55 °FClear.2 mph94%30.21 "Hg10 mi
11:20 PM55 °FClear.3 mph94%30.21 "Hg10 mi
10:50 PM55 °FClear.3 mph94%30.21 "Hg10 mi
10:20 PM54 °FClear.3 mph100%30.21 "Hg10 mi
9:50 PM55 °FClear.2 mph88%30.21 "Hg10 mi
9:20 PM55 °FClear.1 mph88%30.21 "Hg10 mi
8:50 PM57 °FClear.2 mph88%30.21 "Hg10 mi
8:20 PM57 °FPartly cloudy.1 mph88%30.18 "HgN/A
7:50 PM57 °FBroken clouds.1 mph94%30.18 "HgN/A
7:20 PM61 °FBroken clouds.1 mph83%30.18 "HgN/A
6:50 PM63 °FBroken clouds.3 mph73%30.18 "HgN/A
6:20 PM64 °FBroken clouds.No wind68%30.18 "HgN/A
Weather by CustomWeather, © 2014

See weather overviewHow to use our weather pages